TimeEST,TemperatureF,Dew PointF,Humidity,Sea Level PressureIn,VisibilityMPH,Wind Direction,Wind SpeedMPH,Gust SpeedMPH,PrecipitationIn,Events,Conditions,WindDirDegrees,DateUTC
12:54 AM,50.0,48.0,93,30.02,-9999.0,East,12.7,23.0,0.05,,Unknown,100,2012-12-10 05:54:00
1:54 AM,52.0,51.1,97,29.99,-9999.0,ESE,8.1,-,0.09,,Unknown,110,2012-12-10 06:54:00
2:54 AM,55.9,55.0,97,29.96,-9999.0,South,8.1,-,0.04,,Unknown,180,2012-12-10 07:54:00
3:54 AM,55.9,55.0,97,29.92,-9999.0,South,9.2,19.6,0.02,,Unknown,190,2012-12-10 08:54:00
4:54 AM,57.0,55.9,96,29.91,-9999.0,SSW,9.2,-,0.18,,Unknown,200,2012-12-10 09:54:00
5:54 AM,55.0,55.0,100,29.87,-9999.0,South,6.9,-,0.20,,Unknown,170,2012-12-10 10:54:00
6:54 AM,57.0,55.9,96,29.85,-9999.0,SSW,8.1,-,0.34,,Unknown,200,2012-12-10 11:54:00
7:54 AM,57.9,57.0,97,29.85,-9999.0,SW,12.7,21.9,0.32,,Unknown,230,2012-12-10 12:54:00
8:54 AM,59.0,57.9,96,29.84,-9999.0,SW,10.4,18.4,0.35,,Unknown,220,2012-12-10 13:54:00
9:54 AM,57.0,55.9,96,29.83,-9999.0,South,10.4,19.6,0.05,,Unknown,190,2012-12-10 14:54:00
10:54 AM,57.0,55.9,96,29.78,-9999.0,South,9.2,-,0.01,,Unknown,190,2012-12-10 15:54:00
11:54 AM,59.0,57.0,93,29.73,-9999.0,South,11.5,20.7,0.01,,Unknown,190,2012-12-10 16:54:00
12:54 PM,59.0,57.9,96,29.71,-9999.0,SSW,10.4,18.4,0.37,,Unknown,210,2012-12-10 17:54:00
1:54 PM,59.0,57.9,96,29.68,-9999.0,SSW,11.5,20.7,0.19,,Unknown,210,2012-12-10 18:54:00
2:54 PM,59.0,57.9,96,29.67,-9999.0,SSW,13.8,24.2,0.08,,Unknown,210,2012-12-10 19:54:00
3:54 PM,57.0,55.9,96,29.64,-9999.0,South,9.2,-,N/A,,Unknown,190,2012-12-10 20:54:00
4:54 PM,57.9,57.0,97,29.61,-9999.0,South,8.1,-,0.20,,Unknown,190,2012-12-10 21:54:00
5:54 PM,57.0,55.9,96,29.58,-9999.0,SSW,6.9,-,0.12,,Unknown,200,2012-12-10 22:54:00
6:54 PM,57.9,57.9,100,29.57,-9999.0,SW,5.8,-,0.07,,Unknown,220,2012-12-10 23:54:00
7:54 PM,57.0,57.0,100,29.57,-9999.0,SW,6.9,-,N/A,,Unknown,230,2012-12-11 00:54:00
8:54 PM,57.0,57.0,100,29.57,-9999.0,SW,4.6,-,N/A,,Unknown,220,2012-12-11 01:54:00
9:54 PM,55.9,55.0,97,29.57,-9999.0,SSW,5.8,-,0.03,,Unknown,200,2012-12-11 02:54:00
10:54 PM,55.9,54.0,93,29.58,-9999.0,SSW,10.4,19.6,N/A,,Unknown,210,2012-12-11 03:54:00
11:54 PM,55.9,55.0,97,29.58,-9999.0,SW,8.1,18.4,N/A,,Unknown,230,2012-12-11 04:54:00